Location: Most
(50.5133°N, 13.6207°E)
Time: 09:38:15
(UTC+02:00)

ISS - Pass Details

Date: 14 July 2018
Orbit: 402 x 408 km, 51.6° (Epoch: 17 July)

Event Time Altitude Azimuth Distance (km) Brightness Sun altitude
Rises 04:13:32 0° 277° (W) 2,331 -0.3 -7.4°
Reaches altitude 10° 04:15:37 10° 279° (W) 1,471 -1.3 -7.2°
Maximum altitude 04:18:55 72° 4° (N) 434 -3.5 -6.8°
Drops below altitude 10° 04:22:13 10° 90° (E) 1,472 -0.3 -6.4°
Sets 04:24:18 0° 93° (E) 2,332 0.7 -6.2°
